When you browse on this site, cookies collect data to enhance your experience and personalize the content and advertising you see.
Visit our Privacy Policy to learn more. By continuing to use the site, you agree to this use of cookies and data.
  • In France
  • List of Countries
  • For 7 days
  • Water Temperature
  • Weather Map
  • Weather Widgets
  • user-avatar
    Login

    Hourly Weather Rawson

    Today, 21 February, Friday

    Time Temperature Precipitation Wind Pressure Humidity
    00:00 +10°C° 0 mm 5 mps 770 mmHg 71%
    01:00 +10°C° 0 mm 5 mps 770 mmHg 73%
    02:00 +10°C° 0 mm 5 mps 770 mmHg 75%
    09:00 +15°C° 0 mm 4 mps 770 mmHg 52%
    10:00 +17°C° 0 mm 3 mps 770 mmHg 44%
    11:00 +18°C° 0 mm 3 mps 770 mmHg 36%
    12:00 +19°C° 0 mm 3 mps 769 mmHg 35%
    13:00 +20°C° 0 mm 4 mps 769 mmHg 34%
    14:00 +20°C° 0 mm 4 mps 769 mmHg 33%
    15:00 +20°C° 0 mm 4 mps 768 mmHg 35%
    16:00 +20°C° 0 mm 5 mps 768 mmHg 36%
    17:00 +20°C° 0 mm 5 mps 768 mmHg 38%
    18:00 +17°C° 0 mm 5 mps 767 mmHg 44%
    19:00 +17°C° 0 mm 4 mps 767 mmHg 50%
    20:00 +14°C° 0 mm 4 mps 767 mmHg 56%
    21:00 +14°C° 0 mm 4 mps 767 mmHg 58%
    22:00 +13°C° 0 mm 4 mps 767 mmHg 60%
    23:00 +13°C° 0 mm 4 mps 767 mmHg 62%

    Tomorrow, 22 February, Saturday

    Time Temperature Precipitation Wind Pressure Humidity
    00:00 +13°C° 0 mm 4 mps 766 mmHg 61%
    01:00 +13°C° 0 mm 5 mps 766 mmHg 59%
    02:00 +12°C° 0 mm 5 mps 766 mmHg 58%
    03:00 +13°C° 0 mm 5 mps 765 mmHg 55%
    04:00 +13°C° 0 mm 6 mps 765 mmHg 52%
    05:00 +13°C° 0 mm 6 mps 764 mmHg 49%
    06:00 +15°C° 0 mm 7 mps 764 mmHg 42%
    07:00 +17°C° 0 mm 7 mps 763 mmHg 36%
    08:00 +18°C° 0 mm 8 mps 763 mmHg 29%
    09:00 +22°C° 0 mm 7 mps 763 mmHg 24%
    10:00 +26°C° 0 mm 7 mps 762 mmHg 19%
    11:00 +29°C° 0 mm 7 mps 762 mmHg 13%
    12:00 +30°C° 0 mm 7 mps 761 mmHg 12%
    13:00 +33°C° 0 mm 8 mps 760 mmHg 11%
    14:00 +34°C° 0 mm 8 mps 759 mmHg 10%
    15:00 +34°C° 0 mm 9 mps 758 mmHg 10%
    16:00 +36°C° 0 mm 10 mps 757 mmHg 11%
    17:00 +36°C° 0 mm 10 mps 756 mmHg 11%
    18:00 +33°C° 0 mm 10 mps 756 mmHg 13%
    19:00 +31°C° 0 mm 10 mps 755 mmHg 16%
    20:00 +28°C° 0 mm 10 mps 755 mmHg 19%
    21:00 +28°C° 0 mm 11 mps 754 mmHg 18%
    22:00 +27°C° 0 mm 11 mps 754 mmHg 18%
    23:00 +27°C° 0 mm 11 mps 754 mmHg 18%

    Day after tomorrow, 23 February, Sunday

    Time Temperature Precipitation Wind Pressure Humidity
    00:00 +27°C° 0 mm 11 mps 754 mmHg 19%
    01:00 +27°C° 0 mm 11 mps 753 mmHg 20%
    02:00 +27°C° 0 mm 11 mps 753 mmHg 21%
    03:00 +26°C° 0 mm 9 mps 753 mmHg 22%
    04:00 +24°C° 0 mm 8 mps 753 mmHg 24%
    05:00 +23°C° 0 mm 7 mps 753 mmHg 25%
    06:00 +24°C° 0 mm 7 mps 753 mmHg 25%
    07:00 +26°C° 0 mm 6 mps 753 mmHg 25%
    08:00 +27°C° 0 mm 6 mps 753 mmHg 25%
    09:00 +27°C° 0 mm 6 mps 753 mmHg 29%
    10:00 +27°C° 0 mm 7 mps 754 mmHg 33%
    11:00 +27°C° 0 mm 7 mps 754 mmHg 37%
    12:00 +26°C° 0 mm 8 mps 753 mmHg 40%
    13:00 +24°C° 0 mm 8 mps 753 mmHg 44%
    14:00 +23°C° 0 mm 9 mps 753 mmHg 47%
    15:00 +22°C° 0 mm 9 mps 752 mmHg 52%
    16:00 +21°C° 0 mm 8 mps 752 mmHg 57%
    17:00 +18°C° 0 mm 8 mps 751 mmHg 62%
    18:00 +17°C° 0 mm 8 mps 751 mmHg 70%
    19:00 +16°C° 0 mm 8 mps 750 mmHg 78%
    20:00 +15°C° 0 mm 8 mps 750 mmHg 86%
    21:00 +15°C° 0 mm 7 mps 749 mmHg 87%
    22:00 +15°C° 0 mm 6 mps 749 mmHg 88%
    23:00 +15°C° 0 mm 5 mps 749 mmHg 90%

    24 February, Monday

    Time Temperature Precipitation Wind Pressure Humidity
    00:00 +15°C° 0 mm 5 mps 748 mmHg 91%
    01:00 +14°C° 0 mm 5 mps 747 mmHg 92%
    02:00 +14°C° 0 mm 5 mps 746 mmHg 93%
    03:00 +14°C° 0 mm 6 mps 746 mmHg 87%
    04:00 +15°C° 0 mm 6 mps 746 mmHg 80%
    05:00 +15°C° 0 mm 7 mps 745 mmHg 73%
    06:00 +14°C° 0.1 mm 10 mps 746 mmHg 68%
    07:00 +15°C° 0.1 mm 12 mps 747 mmHg 62%
    08:00 +15°C° 0.1 mm 15 mps 747 mmHg 57%
    09:00 +15°C° 0.5 mm 14 mps 748 mmHg 56%
    10:00 +17°C° 0.5 mm 13 mps 749 mmHg 56%
    11:00 +17°C° 0.5 mm 12 mps 750 mmHg 56%
    12:00 +19°C° 0 mm 11 mps 750 mmHg 46%
    13:00 +22°C° 0 mm 10 mps 750 mmHg 37%
    14:00 +24°C° 0 mm 9 mps 751 mmHg 27%
    15:00 +23°C° 0 mm 8 mps 751 mmHg 32%
    16:00 +22°C° 0 mm 7 mps 751 mmHg 37%
    17:00 +21°C° 0 mm 7 mps 751 mmHg 41%
    18:00 +19°C° 0 mm 6 mps 752 mmHg 51%
    19:00 +17°C° 0 mm 5 mps 752 mmHg 61%
    20:00 +15°C° 0 mm 5 mps 753 mmHg 70%
    21:00 +15°C° 0 mm 4 mps 754 mmHg 73%
    22:00 +15°C° 0 mm 4 mps 754 mmHg 76%
    23:00 +15°C° 0 mm 4 mps 755 mmHg 78%

    25 February, Tuesday

    Time Temperature Precipitation Wind Pressure Humidity
    00:00 +15°C° 0 mm 4 mps 755 mmHg 78%
    01:00 +14°C° 0 mm 4 mps 756 mmHg 78%
    02:00 +14°C° 0 mm 5 mps 756 mmHg 77%
    03:00 +14°C° 0 mm 5 mps 757 mmHg 76%
    04:00 +14°C° 0 mm 5 mps 757 mmHg 75%
    05:00 +14°C° 0 mm 5 mps 758 mmHg 74%
    06:00 +14°C° 0 mm 5 mps 758 mmHg 72%
    07:00 +14°C° 0 mm 4 mps 758 mmHg 69%
    08:00 +14°C° 0 mm 3 mps 759 mmHg 67%
    09:00 +16°C° 0 mm 3 mps 759 mmHg 64%
    10:00 +17°C° 0 mm 3 mps 759 mmHg 60%
    11:00 +18°C° 0 mm 2 mps 759 mmHg 57%
    12:00 +19°C° 0 mm 2 mps 759 mmHg 53%
    13:00 +19°C° 0 mm 3 mps 759 mmHg 50%
    14:00 +20°C° 0 mm 3 mps 758 mmHg 46%
    15:00 +21°C° 0 mm 3 mps 758 mmHg 43%
    16:00 +22°C° 0 mm 3 mps 757 mmHg 39%
    17:00 +24°C° 0 mm 3 mps 757 mmHg 36%
    18:00 +22°C° 0 mm 4 mps 757 mmHg 39%
    19:00 +21°C° 0 mm 5 mps 757 mmHg 42%
    20:00 +20°C° 0 mm 6 mps 756 mmHg 45%
    21:00 +19°C° 0 mm 6 mps 757 mmHg 53%
    22:00 +17°C° 0 mm 7 mps 757 mmHg 60%
    23:00 +16°C° 0 mm 8 mps 757 mmHg 67%

    26 February, Wednesday

    Time Temperature Precipitation Wind Pressure Humidity
    00:00 +16°C° 0 mm 7 mps 756 mmHg 64%
    01:00 +17°C° 0 mm 7 mps 756 mmHg 61%
    02:00 +17°C° 0 mm 6 mps 756 mmHg 58%
    03:00 +17°C° 0 mm 6 mps 756 mmHg 53%
    04:00 +17°C° 0 mm 6 mps 756 mmHg 48%
    05:00 +17°C° 0 mm 6 mps 756 mmHg 43%
    06:00 +19°C° 0 mm 6 mps 757 mmHg 42%
    07:00 +20°C° 0 mm 7 mps 757 mmHg 41%
    08:00 +21°C° 0 mm 7 mps 757 mmHg 40%
    09:00 +22°C° 0 mm 6 mps 757 mmHg 37%
    10:00 +25°C° 0 mm 5 mps 757 mmHg 34%
    11:00 +26°C° 0 mm 5 mps 757 mmHg 31%
    12:00 +26°C° 0 mm 5 mps 757 mmHg 32%
    13:00 +27°C° 0 mm 5 mps 757 mmHg 33%
    14:00 +27°C° 0 mm 5 mps 757 mmHg 33%
    15:00 +26°C° 0 mm 5 mps 757 mmHg 35%
    16:00 +26°C° 0 mm 4 mps 757 mmHg 37%
    17:00 +25°C° 0 mm 4 mps 757 mmHg 39%
    18:00 +23°C° 0 mm 4 mps 757 mmHg 42%
    19:00 +22°C° 0 mm 4 mps 757 mmHg 46%
    20:00 +21°C° 0 mm 4 mps 757 mmHg 49%
    21:00 +21°C° 0 mm 4 mps 757 mmHg 48%
    22:00 +21°C° 0 mm 5 mps 756 mmHg 47%
    23:00 +21°C° 0 mm 6 mps 756 mmHg 46%
    Show more